Location: Stilling
(56.0622°N, 9.9882°E)
Time: 12:50:22
(UTC+00:00)

Cosmos 1825 - Pass Details

Date: 13 July 2020
Orbit: 502 x 508 km, 82.5° (Epoch: 06 August)

Event Time Altitude Azimuth Distance (km) Brightness Sun altitude
Exits shadow 22:41:36 - 228° (SW) 2,514 5.4 -11.7°
Reaches altitude 10° 22:43:49 10° 243° (WSW) 1,732 4.7 -11.8°
Maximum altitude 22:46:50 22° 296° (WNW) 1,152 4.4 -11.9°
Drops below altitude 10° 22:49:53 10° 349° (N) 1,742 6.4 -11.9°
Sets 22:52:23 0° 5° (N) 2,633 7.6 -12.0°
